Weather in Guayaramerin

Bolivia     10°49′36″S   65°21′13″W
temp.,
°C
wind,
m/s
gust,
m/s
humid.,
%
clouds,
%
prec.,
mm/h
press.,
hPa
HPBL,
m
30 june, thu
thu3023:00+20sse11740 0.0 101412
02:00+19sse007814 0.0 101311
05:00+18sse007970 0.0 101311
08:00+21se01685 0.0 101475
11:00+31n02379 0.0 10151045
14:00+33n23295 0.0 10112231
17:00+30nne11410 0.0 100943
20:00+24nne11530 0.0 101111
1 july, fri
fri123:00+21ne00630 0.0 101211
02:00+20e116920 0.0 101111
05:00+19se007411 0.0 101211
08:00+22ene00655 0.0 101366
11:00+32nw123660 0.0 1013891
14:00+34nnw24297 0.0 10102502
17:00+32n12395 0.0 100845
20:00+24ne00589 0.0 101011
2 july, sat
sat223:00+23n116314 0.0 101111
02:00+21n11705 0.0 101011
05:00+20nne11770 0.0 101111
08:00+23n11670 0.0 101387
11:00+32nw12395 0.0 1013977
14:00+35nnw243036 0.0 10102751
17:00+32nne114487 0.0 100911
20:00+28nne115296 0.0 101111
3 july, sun
sun323:00+24se00642 0.0 101211
02:00+23ne116645 0.0 101212
05:00+22ene00720 0.0 101311
08:00+24ne11660 0.0 101585
11:00+34nnw11360 0.0 1015972
14:00+37n12280 0.0 10112828
17:00+34nne123722 0.0 101063
20:00+27ene005887 0.1 101211
4 july, mon
mon423:00+23e01797 0.3 101311
02:00+22nne11780 0.3 101217
05:00+22nne11762 0.0 101335
08:00+25nne15695 0.0 1015197
11:00+32nne234389 0.0 10151035
14:00+36ne12345 0.0 10122272
17:00+31e005136 0.0 101014
20:00+25nw1177100 0.4 101213